Weather History for Marshfield, WI

Change the Weather History Date:

Saturday, September 8, 2012

  Actual Average Record
Temperature  
Mean Temperature 56 °F -  
Max Temperature 69 °F 74 °F 97 °F (1933)
Min Temperature 46 °F 51 °F 35 °F (1944)
Degree Days  
Heating Degree Days 9    
Growing Degree Days 6 (Base 50)    
Moisture  
Dew Point 49 °F    
Average Humidity 82    
Maximum Humidity 94    
Minimum Humidity 48    
Precipitation  
Precipitation 0.22 in - - ()
Sea Level Pressure  
Sea Level Pressure 29.88 in    
Wind  
Wind Speed 8 mph (NW)    
Max Wind Speed 16 mph    
Max Gust Speed 23 mph    
Visibility 9 miles    
Events Rain    
Averages and records for this station are not official NWS values.
T = Trace of Precipitation, MM = Missing Value Source: NWS Daily Summary

Daily Weather History Graph

Daily Weather History Graph

Search for Another Location

Airport:

Trip Planner

Search our weather history database for the weather conditions in past years. The results will help you decide how hot, cold, wet, or windy it might be!

Date:

Astronomy

Sep. 08, 2012 Rise Set
Actual Time 6:32 AM CDT 7:23 PM CDT
Civil Twilight 6:02 AM CDT 7:53 PM CDT
Nautical Twilight 5:27 AM CDT 8:28 PM CDT
Astronomical Twilight 4:50 AM CDT 9:05 PM CDT
Moon 11:51 PM CDT (9/8) 2:31 PM CDT (9/8)
Length of Visible Light 13h 50m
Length of Day
12h 51m
Waning Gibbous, 48% of the Moon is Illuminated
Sep 8
Waning Gibbous
Sep 15
New
Sep 22
First Quarter
Sep 29
Full
Oct 8
Last Quarter

Hourly Weather History & Observations

Time (CDT) Temp. Windchill Dew Point Humidity Pressure Visibility Wind Dir Wind Speed Gust Speed Precip Events Conditions
12:54 AM 48.0 °F - 45.0 °F 89% 29.95 in 10.0 mi NW 5.8 mph - N/A   Clear
1:54 AM 46.9 °F - 45.0 °F 93% 29.95 in 10.0 mi NW 8.1 mph - N/A   Clear
2:54 AM 48.0 °F - 45.0 °F 89% 29.94 in 10.0 mi NW 8.1 mph - N/A   Clear
3:54 AM 46.9 °F - 45.0 °F 93% 29.93 in 10.0 mi WNW 6.9 mph - N/A   Clear
4:54 AM 46.9 °F - 45.0 °F 93% 29.94 in 10.0 mi NW 10.4 mph - N/A   Clear
5:54 AM 46.0 °F 41.9 °F 44.1 °F 93% 29.94 in 10.0 mi WNW 8.1 mph - N/A   Clear
6:54 AM 46.0 °F 43.9 °F 44.1 °F 93% 29.94 in 10.0 mi WNW 4.6 mph - N/A   Clear
7:54 AM 48.9 °F - 46.0 °F 90% 29.94 in 10.0 mi WNW 9.2 mph - N/A   Clear
8:54 AM 53.1 °F - 48.0 °F 83% 29.94 in 10.0 mi NW 11.5 mph - N/A   Clear
9:54 AM 57.0 °F - 48.0 °F 72% 29.92 in 10.0 mi NW 12.7 mph - N/A   Clear
10:54 AM 61.0 °F - 46.0 °F 58% 29.91 in 10.0 mi WNW 16.1 mph 23.0 mph N/A   Partly Cloudy
11:54 AM 63.0 °F - 46.9 °F 56% 29.88 in 10.0 mi West 16.1 mph 21.9 mph N/A   Partly Cloudy
12:54 PM 66.0 °F - 48.0 °F 52% 29.86 in 10.0 mi West 13.8 mph - N/A   Partly Cloudy
1:54 PM 66.0 °F - 46.0 °F 48% 29.83 in 10.0 mi WNW 13.8 mph 21.9 mph N/A   Scattered Clouds
3:54 PM 62.1 °F - 55.0 °F 78% 29.79 in 10.0 mi SSW 4.6 mph - 0.01 in Rain Light Rain
4:54 PM 60.1 °F - 55.0 °F 83% 29.79 in 3.0 mi Calm Calm - 0.02 in Rain Rain
5:02 PM 60.8 °F - 55.4 °F 82% 29.80 in 2.0 mi WNW 4.6 mph - 0.02 in Rain Rain
5:30 PM 57.2 °F - 53.6 °F 88% 29.80 in 8.0 mi Calm Calm - 0.14 in Rain Light Rain
5:54 PM 57.9 °F - 54.0 °F 87% 29.83 in 10.0 mi NNW 4.6 mph - 0.14 in   Mostly Cloudy
6:42 PM 57.2 °F - 55.4 °F 94% 29.83 in 1.8 mi Variable 4.6 mph - 0.05 in Rain Heavy Rain
6:48 PM 57.2 °F - 55.4 °F 94% 29.83 in 3.0 mi NW 8.1 mph - 0.05 in Rain Light Rain
6:54 PM 57.9 °F - 54.0 °F 87% 29.85 in 10.0 mi NW 10.4 mph - 0.05 in   Mostly Cloudy
7:54 PM 53.1 °F - 48.9 °F 86% 29.87 in 10.0 mi NNW 9.2 mph - N/A   Clear
8:54 PM 52.0 °F - 48.9 °F 89% 29.89 in 10.0 mi NW 8.1 mph - N/A   Clear
11:54 PM 53.1 °F - 50.0 °F 89% 29.95 in 10.0 mi NNW 10.4 mph - N/A   Scattered Clouds